User: anonymous   Login
Location: Borkenes
(68.7830°N, 16.1830°E)
Time: 22:10:14
(UTC+01:00)
Language:

Courier 1B - Orbit

View from above orbital plane
View from above orbital plane
View from above satellite
View from above satellite

Ground track
Ground track

The orbit data is extracted from the following two-line orbital elements,

1    58U 60013A   19345.63965187  .00000092  00000-0  95120-5 0  9993
2    58  28.3298 332.5316 0164886 306.0739  52.4636 13.46319597913682
Epoch (UTC): 11 December 2019 15:21:05
Eccentricity: 0.0164886
inclination: 28.3298°
perigee height: 963 km
apogee height: 1209 km
right ascension of ascending node: 332.5316°
argument of perigee: 306.0739°
revolutions per day: 13.46319597
mean anomaly at epoch: 52.4636°
orbit number at epoch: 91368

The dashed part of the orbit path shows where the satellite is in the earth's shadow,  

DLR